Погода Чёрноморское

Поиск расширенной информации на нашем сайте:

Полезная информация:

Новости сайта



02.01.2020
Опубликован Долгосрочный прогноз погоды по городам России и ближнего зарубежья на январь 2020 года.
Карты: Прогноз на январь и февраль 2020 года, Сравнение прогнозируемой аномалии приземной температуры воздуха на январь 2020 года по разным моделям.




Погода Чёрноморское - сегодня

Время (UTC), дата Ветер
(°,м/с) 
Видим.   Явления Облачность Т
(°С)
Тd
(°С)
f(%) Тe
(°С)
Pmin
(гПа)
dP
(гПа)
Po
(мм)
O2
(г/м3)
Тmin Tmax R s Состояние
почвы
12 18.10.20 310 (СЗ) 20000 м    9/5 600 м кучево-дожд., средняя, верхняя 
[Cb cap|Ac trans|Ci fib]
+19.3 +13.7 70 +26  1015.2  0.3  761  283           
15 18.10.20 330 (СЗ) 6-11{10}  20000 м    1/0 верхняя 
[Ci fib]
+19.5 +5.8 41 +20  1017.5  0.2  762  286           
18 18.10.20 180 (Ю) 10 км    6/6 600 м кучево-дожд. 
[Cb cap]
+14.4 +11.4 82 +18  1016.7  1.1  762  289    +20.8       
21 18.10.20 160 (Ю) 10 км    3/0 верхняя 
[Ci fib]
+12.7 +9.8 82 +14  1017.2  -0.5  762  292           
00 19.10.20 090 (В) 10 км    3/0 верхняя 
[Ci fib]
+14.7 +12.3 86 +19  1017.5  0.3  762  289           
03 19.10.20 020 (С) 10 км  {ливн. осадки}  10/10 600 м кучево-дожд. 
[Cb cap]
+15.3 +13.3 88 +20  1018.2  0.7  763  288  +11.8    0.7     
06 19.10.20 360 (С) 20000 м  {ливн. осадки}  10/10 600 м кучево-дожд. 
[Cb cap]
+15.1 +9.1 67 +14  1020.2  764  290  +11.8    0.7     
12 19.10.20 360 (С) 5{10}  20000 м  {ливн. осадки}  1/1 600 м 
[Cu med, cong]
+15.2 +6.1 55 +15  1022.6  0.4  766  291           
15 19.10.20 360 (С) 5{10}  20000 м    1/1 600 м 
[Cu med, cong]
+14.5 +3.3 47 +14  1024.1  1.5  767  293      0.3     
18 19.10.20 360 (С) 20000 м    10/10 600 м кучево-дожд. 
[Cb cap]
+13.2 +9.3 77 +14  1025.6  1.5  768  294    +15.7  0.3     
21 19.10.20 340 (С) 20000 м    10/10 600 м кучево-дожд. 
[Cb cap]
+14.5 +2.9 46 +14  1026.6  769  294           
00 20.10.20 340 (С) 20000 м    5/5 600 м кучево-дожд. 
[Cb cap]
+13.9 +3.8 50 +13  1027  0.4  769  294           
03 20.10.20 360 (С) 20000 м    1/1 600 м 
[Cu hum]
+13.3 +4.7 56 +13  1027.2  0.2  770  295  +13.1         
06 20.10.20 170 (Ю) 20000 м    4/4 600 м кучево-дожд. 
[Cb cap]
+11.3 +6 70 +12  1028.3  1.1  770  297  +8.3         
09 20.10.20 340 (С) 20000 м    4/4 600 м 
[Cu med, cong]
+14.7 +3.8 48 +15  1028.8  0.5  771  294           
12 20.10.20 360 (С) 20000 м    3/3 600 м 
[Cu med, cong]
+15 +3.7 47 +15  1028.5  -0.3  770  294           
15 20.10.20 360 (С) 20000 м    6/6 600 м 
[Sc diur, vesp]
+14.2 +2.6 45 +14  1028.6  0.1  771  295           
18 20.10.20 090 (В) 20000 м    10/0 средняя 
[Ac und]
+12.9 +4.2 55 +13  1029.3  0.7  771  296    +15.3       
21 20.10.20 140 (ЮВ) 20000 м    9/0 средняя 
[Ac As]
+9.5 +3.8 68 +10  1030.2  0.8  772  300           
00 21.10.20 180 (Ю) 20000 м    ясно 
+8.7 +3.1 68 +9  1030.2  772  301           
03 21.10.20 140 (ЮВ) 20000 м    ясно 
+9.1 +2 61 +9  1030.2  772  301  +8.5         
06 21.10.20 160 (Ю) 20000 м    3/3 600 м 
[Sc]
+10.9 +3.5 60 +11  1029.8  -0.3  771  298  +7.3         
09 21.10.20 140 (ЮВ) 20000 м    4/0 верхняя 
[Cs]
+15.5 +2 40 +16  1029.6  -0.2  771  294           
12 21.10.20 150 (ЮВ) 20000 м    9/0 верхняя 
[Cs]
+16.1 +5 48 +16  1027.3  -2.3  770  292           
15 21.10.20 150 (ЮВ) 20000 м    9/4 600 м верхняя 
[Sc|Cs]
+14.7 +8.8 68 +16  1026  -1.3  769  292           
Время (UTC), дата Ветер
(°,м/с) 
Видим.   Явления Облачность Т
(°С)
Тd
(°С)
f(%) Тe
(°С)
Pmin
(гПа)
dP
(гПа)
Po
(мм)
O2
(г/м3)
Тmin Tmax R s Состояние
почвы

Для получения пояснительной информации подведите курсор к названию столбца.

ПОГОДА Чёрноморское - архив

Всё, что Вы хотите узнать о погоде Чёрноморское - удобно и подробно!

Выберите нужную дату (начиная с 1 января 2019* года) и нажмите кнопку "Найти".
Будут отображены архивные сводки погоды по пункту Чёрноморское, начиная с указанной даты.


Отображать данные в формате CSV (для использования в таблицах Excel)


Внимание! Наш архив погоды предназначен исключительно для личного некоммерческого использования в познавательных целях. Если Вам необходимы официальные справки о состоянии погоды (для производственных, юридических, коммерческих и т.п. целей), обращайтесь в органы Росгидромета.

*Примечание: данная дата относится к архиву по метеостанциям СССР (Россия, СНГ, Балтия).
Архив по метеостанциям Зарубежной Европы и Азии (кроме Китая) хранится 10 дней, по другим регионам земного шара (Китай, Африка, Америка, Австралия, Океания) - 1 день.

Чёрноморское - район местоположения метеостанции


Название, широта, долгота, высота метеостанции:
Чёрноморское 45.5°ш. 32.7°д. 10 м над ур. моря [Российская Федерация]

Дополнительная информация

В oтличие oт бoльшинства пoгoдных сайтoв мы публикуем пoдрoбную метеoинфoрмацию в детальнoм прoфессиoнальнoм фoрмате.

Характеристики температуры и влажнoсти вoздуха измеряются на высoте 2 м в тени вдали oт зданий и деревьев.
Скoрoсть ветра измеряется на высoте 10 м (на урoвне рoста челoвека скoрoсть ветра ниже в 1.5-2 раза). Если метеoстанция нахoдится в гoрoде или в лесу, тo скoрoсть ветра занижена на 2-4 м/с пo сравнению с oткрытым местoм. Скoрoсть ветра над акватoриями крупных рек и oзёр, а также на вершинах хoлмoв на 2-5 м/с выше, чем в oбычных услoвиях.
Атмoсфернoе давление в разных тoчках местнoсти мoжет значительнo oтличаться oт давления на метеoстанции, в зависимoсти oт услoвий рельефа (при пoдъёме на 10 м давление пoнижается примернo на 1 мм рт.ст.).